Skip Page Navigation
NASA JPL Caltech
NASA Logo - Jet Propulsion Laboratory + View the NASA Portal
+ Center for Near-Earth Object Studies
JPL Home Earth Solar System Stars & Galaxies Technology
JPL Solar System Dynamics
BODIES ORBITS EPHEMERIDES TOOLS PHYSICAL DATA DISCOVERY FAQ SITE MAP
JPL Small-Body Database Browser
Search: [ help ]  
332466 (2008 DV43)
Classification: Main-belt Asteroid          SPK-ID: 2332466
Ephemeris | Orbit Diagram | Orbital Elements | Mission Design | Physical Parameters | Discovery Circumstances ]

[ show orbit diagram ]
Orbital Elements at Epoch 2459000.5 (2020-May-31.0) TDB
Reference: JPL 10 (heliocentric ecliptic J2000)
 Element Value Uncertainty (1-sigma)   Units 
e .1264622574377785 8.4027e-08  
a 2.420316245092996 2.8064e-08 au
q 2.114237589025208 2.1259e-07 au
i 2.532023565649708 7.1231e-06 deg
node 72.65958372291904 0.0001712 deg
peri 146.2972603380318 0.0001746 deg
M 57.87264099426688 4.0428e-05 deg
tp 2458779.405773713132
(2019-Oct-22.90577371)
0.00015204 TDB
period 1375.328999952799
3.77
2.3921e-05
6.549e-08
d
yr
n .2617555508626337 4.5526e-09 deg/d
Q 2.726394901160784 3.1613e-08 au
  Orbit Determination Parameters
   # obs. used (total)      151  
   data-arc span      5474 days (14.99 yr)  
   first obs. used      2004-02-13  
   last obs. used      2019-02-08  
   planetary ephem.      DE431  
   SB-pert. ephem.      SB431-N16  
   condition code      0  
   norm. resid. RMS      .59257  
   source      ORB  
   producer      Otto Matic  
   solution date      2020-Feb-25 21:08:34  

Additional Information
 Earth MOID = 1.10691 au 
 Jupiter MOID = 2.24331 au 
 T_jup = 3.502 
[ show covariance matrix ]

Ephemeris | Orbit Diagram | Orbital Elements | Mission Design | Physical Parameters | Discovery Circumstances ]

Physical Parameter Table
Parameter Symbol Value Units Sigma Reference Notes
absolute magnitude H 17.4   n/a MPO471448  

332466 (2008 DV43)          Discovered 2008-Feb-28 by Spacewatch at Kitt Peak
Reference: 20120703/Numbers.arcLast Updated: 2012-07-09
Ephemeris | Orbit Diagram | Orbital Elements | Mission Design | Physical Parameters | Discovery Circumstances ]
ABOUT SSD CREDITS/AWARDS PRIVACY/COPYRIGHT GLOSSARY LINKS
FirstGov 2020-Sep-30 01:07 UT
(server date/time)  
NASA Home Page
Site Manager:   Ryan S. Park
Webmaster  Alan B. Chamberlin